Regional Weather Roundup
Issued by NWS Charleston, SC

Current Version | Previous Version | Graphics & Text | Print | Product List | Glossary On
Versions: 1 2 3 4 5 6 7 8 9 10 11 12 13 14 15 16 17 18 19 20 21 22 23 24 25 26 27 28 29 30 31 32 33 34 35 36 37 38 39 40 41 42 43 44 45 46 47 48 49 50
000 ASUS42 KCHS 281311 RWRCHS REGIONAL WEATHER ROUNDUP NATIONAL WEATHER SERVICE CHARLESTON SC 800 AM EST TUE FEB 28 2017 NOTE: "FAIR" INDICATES FEW OR NO CLOUDS BELOW 12,000 FEET WITH NO SIGNIFICANT WEATHER AND/OR OBSTRUCTIONS TO VISIBILITY. NOT ALL STATIONS ARE QUALITY CONTROLLED. USE DATA WITH CAUTION... ESPECIALLY DEWPOINT OBSERVATIONS. SCZ027-030-031-034>040-042>050-281400- ...SOUTHEAST SOUTH CAROLINA... CITY SKY/WX TMP DP RH WIND PRES REMARKS N CHARLESTON PTSUNNY 66 62 87 CALM 30.30R WATERFRONT PRK N/A 64 63 96 CALM 30.28R MOUNT PLEASANT PTSUNNY 64 63 94 CALM 30.31R JOHNS ISLAND PTSUNNY 64 64 100 CALM 30.31R PINOPOLIS N/A 61 61 100 CALM 30.20R MONCKS CORNER CLOUDY 59 57 94 CALM 30.31R SUMMERVILLE CLOUDY 61 59 94 CALM 30.31R BEAUFORT MCAS CLOUDY 66 66 100 CALM 30.30R BEAUFORT ARPT CLOUDY 63 63 100 CALM 30.30R HILTON HEAD IS PTSUNNY 66 66 100 S9 30.29R WALTERBORO CLOUDY 63 61 94 CALM 30.31R ALLENDALE FAIR 61 59 94 CALM 30.28S ...SOUTHERN MIDLANDS AND PEE DEE... CITY SKY/WX TMP DP RH WIND PRES REMARKS GEORGETOWN PTSUNNY 63 63 100 CALM 30.31R KINGSTREE PTSUNNY 55 54 94 CALM 30.31R ORANGEBURG MOSUNNY 60 56 86 SE3 30.29R BARNWELL FAIR 59 57 94 CALM 30.30R AIKEN FAIR 54 52 94 CALM 30.32S MANNING CLOUDY 61 54 77 MISG 30.31R COLUMBIA SUNNY 58 53 84 CALM 30.29R SUMTER MOSUNNY 57 54 87 CALM 30.27S FLORENCE CLOUDY 58 54 86 CALM 30.30R MYRTLE BEACH PTSUNNY 63 63 100 CALM 30.31R N MYRTLE BEACH MOSUNNY 63 62 97 CALM 30.30R $$ GAZ063-065-086>088-099>101-113>116-118-119-134>141-150-281400- ...SOUTHEAST GEORGIA... CITY SKY/WX TMP DP RH WIND PRES REMARKS SAVANNAH ARPT CLOUDY 65 62 90 NE3 30.30R HUNTER AAF PTSUNNY 64 64 100 CALM 30.27R FORT STEWART CLOUDY 64 62 92 CALM 30.28R STATESBORO PTSUNNY 64 32 30 CALM 30.29S SYLVANIA PTSUNNY N/A N/A N/A CALM 30.30S FOG CLAXTON CLOUDY N/A N/A N/A CALM 30.30R HAZE ...CSRA...CENTRAL AND FAR SOUTHEAST GEORGIA... CITY SKY/WX TMP DP RH WIND PRES REMARKS THOMSON SUNNY 50 50 100 CALM 30.34S AUGUSTA-BUSH SUNNY 55 54 96 CALM 30.29R FOG AUGUSTA-DANIEL SUNNY 61 54 77 E3 30.29S SWAINSBORO CLOUDY 59 59 100 CALM 30.30R VIDALIA CLOUDY 63 63 100 CALM 30.30R EASTMAN CLOUDY 59 59 99 CALM 30.31S HAZLEHURST CLOUDY 62 62 100 CALM 30.29R FOG ALMA FOG 62 62 100 CALM 30.29S VSB 1/4 WAYCROSS FOG 65 65 100 CALM 30.30R VSB 1/4 JESUP CLOUDY 64 63 94 CALM 30.30R FOG BAXLEY FOG 63 63 100 CALM 30.29R VSB 1/2 BRUNSWICK FOG 61 61 100 N3 30.30R VSB 1/4 SAINT SIMONS SUNNY 63 62 97 CALM 30.28R $$ SCZ027-028-034-036>038-045-046-048>050-GAZ119-141-281400- ...LAKE AND SUPPLEMENTAL COASTAL OBSERVATIONS... STATION/POSITION TIME TEMP WIND PRES WAVE SWELL AIR SEA DIR/SP/G HT/PER HT/PER/DIR (UTC) (F) (DEG/KT/KT) (MB) (FT/S) (FT/S/D) WINYAH BAY 1145 62 CALM 1025.0 LAKE MURRAY 1220 56 CALM 1025.1 ACE BASIN NERRS NOT AVBL FORT PULASKI 1236 65 63 270/ 2/ 2 1025.9R SAPELO ISLAND 1200 61 330/ 2 1025.0 $$ ANZ835-935-AMZ111-154-330-350-352-354-370-450-454-472-281400- ...C-MAN AND BUOY OBSERVATIONS... STATION/POSITION TIME TEMP WIND PRES WAVE SWELL AIR SEA DIR/SP/G HT/PER HT/PER/DIR (UTC) (F) (DEG/KT/KT) (MB) (FT/S) (FT/S/D) BUOY 41004 1250 71 68 190/ 16/ 17 1025.1R 6/ 6 BUOY 41008 1150 65 63 120/ 8/ 8 1024.4 4/ 6 3/100/ 6 FOLLY BEACH CMAN 1200 64 240/ 1/ 1 1025.9R CAPERS NEARSHORE 1208 63 61 150/ 4/ 8 1025.5R FRIPP NEARSHORE 1208 64 61 160/ 10/ 12 1024.9R STATION/POSITION TIME TEMP WIND PRES WAVE SWELL AIR SEA DIR/SP/G HT/PER HT/PER/DIR (UTC) (F) (DEG/KT/KT) (MB) (FT/S) (FT/S/D) 5E ST. MARYS GA 1230 65 N/A 4/ 6 FRYING PAN BUOY 1240 72 71 210/ 10/ 14 1025.5R BUOY 41025 1250 70 72 190/ 12/ 14 1027.2R 4/ 5 3/120/ 6 CAPE LOOKOUT NC 1200 61 100/ 8/ 9 1026.4S BUOY 41002 1250 69 70 140/ 17/ 19 1027.2R 4/ 8 2/ 60/ 8 BUOY 41010 NOT AVBL ST AUGUSTINE FL 1300 67 68 200/ 2/ 3 1026.6R $$

USA.gov is the U.S. government's official web portal to all federal, state and local government web resources and services.